User: anonymous   Login
Location: Possagno
(45.8500°N, 11.8667°E)
Time: 21:39:58
(UTC+00:00)
Language:

STARLINK-2672 - Orbit

View from above orbital plane
View from above orbital plane
View from above satellite
View from above satellite

Ground track
Ground track

The orbit data is extracted from the following two-line orbital elements,

1 48650C 21044N   21300.49375371  .00000332  00000-0  22210-4 0  3004
2 48650  53.0541  78.2351 0001750  84.8491 202.4365 15.06401262    16
Epoch (UTC): 27 October 2021 11:51:00
Eccentricity: 0.0001750
inclination: 53.0541°
perigee height: 546 km
apogee height: 548 km
right ascension of ascending node: 78.2351°
argument of perigee: 84.8491°
revolutions per day: 15.06401262
mean anomaly at epoch: 202.4365°
orbit number at epoch: 1

The dashed part of the orbit path shows where the satellite is in the earth's shadow,  

DLR